When you browse on this site, cookies collect data to enhance your experience and personalize the content and advertising you see.
Visit our Privacy Policy to learn more. By continuing to use the site, you agree to this use of cookies and data.
  • en France
  • Liste des pays
  • À 7 jours
  • Température de l'eau
  • Carte satellitaire
  • Carte météo
  • Widgets météo
  • user-avatar
    Se connecter

    Météo par heure à Gluhari

    Ce jour, 19 Novembre, Lundi

    Heure Température Précipitation Vent Pression Humidité
    00:00 +1°C° 0 mm 3 m/s 764 mmHg 80%
    01:00 0°C° 0 mm 3 m/s 764 mmHg 81%
    02:00 0°C° 0 mm 3 m/s 765 mmHg 84%
    03:00 -1°C° 0 mm 3 m/s 765 mmHg 84%
    04:00 -1°C° 0 mm 2 m/s 766 mmHg 85%
    05:00 -1°C° 0 mm 2 m/s 766 mmHg 86%
    06:00 -1°C° 0 mm 2 m/s 766 mmHg 86%
    07:00 -2°C° 0 mm 2 m/s 766 mmHg 86%
    08:00 -2°C° 0 mm 2 m/s 767 mmHg 83%
    09:00 -2°C° 0 mm 3 m/s 767 mmHg 80%
    10:00 -1°C° 0 mm 3 m/s 767 mmHg 77%
    11:00 -1°C° 0 mm 3 m/s 767 mmHg 74%
    12:00 -1°C° 0 mm 2 m/s 768 mmHg 73%
    13:00 -1°C° 0 mm 2 m/s 768 mmHg 72%
    14:00 -1°C° 0 mm 2 m/s 768 mmHg 71%
    15:00 -1°C° 0 mm 2 m/s 768 mmHg 74%
    16:00 -2°C° 0 mm 2 m/s 767 mmHg 78%
    17:00 -1°C° 0 mm 1 m/s 767 mmHg 81%
    18:00 -1°C° 0 mm 1 m/s 767 mmHg 81%
    19:00 -1°C° 0 mm 1 m/s 767 mmHg 81%
    20:00 -1°C° 0 mm 1 m/s 767 mmHg 81%
    21:00 -1°C° 0 mm 1 m/s 767 mmHg 80%
    22:00 -1°C° 0 mm 1 m/s 767 mmHg 79%
    23:00 -1°C° 0 mm 1 m/s 767 mmHg 78%

    Demain, 20 Novembre, Mardi

    Heure Température Précipitation Vent Pression Humidité
    00:00 -1°C° 0 mm 1 m/s 767 mmHg 78%
    01:00 -2°C° 0 mm 0 m/s 767 mmHg 77%
    02:00 -2°C° 0 mm 0 m/s 766 mmHg 76%
    03:00 -2°C° 0 mm 0 m/s 766 mmHg 75%
    04:00 -2°C° 0 mm 0 m/s 766 mmHg 75%
    05:00 -2°C° 0 mm 0 m/s 765 mmHg 74%
    06:00 -1°C° 0 mm 1 m/s 765 mmHg 74%
    07:00 -1°C° 0 mm 1 m/s 765 mmHg 75%
    08:00 -1°C° 0 mm 1 m/s 764 mmHg 75%
    09:00 0°C° 0 mm 1 m/s 764 mmHg 73%
    10:00 0°C° 0 mm 1 m/s 764 mmHg 72%
    11:00 +1°C° 0 mm 1 m/s 764 mmHg 70%
    12:00 -1°C° 0 mm 2 m/s 763 mmHg 72%
    13:00 +1°C° 0 mm 2 m/s 763 mmHg 73%
    14:00 +1°C° 0 mm 2 m/s 763 mmHg 75%
    15:00 -1°C° 0 mm 2 m/s 762 mmHg 80%
    16:00 -1°C° 0 mm 2 m/s 762 mmHg 84%
    17:00 -2°C° 0 mm 2 m/s 762 mmHg 89%
    18:00 -1°C° 0 mm 2 m/s 761 mmHg 90%
    19:00 -1°C° 0 mm 2 m/s 761 mmHg 91%
    20:00 -1°C° 0 mm 2 m/s 761 mmHg 92%
    21:00 -1°C° 0 mm 2 m/s 761 mmHg 91%
    22:00 -1°C° 0 mm 2 m/s 761 mmHg 89%
    23:00 +1°C° 0 mm 2 m/s 762 mmHg 88%

    Après-demain, 21 Novembre, Mercredi

    Heure Température Précipitation Vent Pression Humidité
    00:00 -1°C° 0 mm 2 m/s 762 mmHg 88%
    01:00 -1°C° 0 mm 2 m/s 762 mmHg 88%
    02:00 -1°C° 0 mm 2 m/s 762 mmHg 88%
    03:00 -1°C° 0 mm 2 m/s 763 mmHg 88%
    04:00 -1°C° 0 mm 2 m/s 763 mmHg 88%
    05:00 -1°C° 0 mm 2 m/s 763 mmHg 88%
    06:00 -1°C° 0 mm 2 m/s 763 mmHg 89%
    07:00 -2°C° 0 mm 2 m/s 763 mmHg 91%
    08:00 -2°C° 0 mm 2 m/s 764 mmHg 92%
    09:00 -2°C° 0 mm 2 m/s 764 mmHg 88%
    10:00 -1°C° 0 mm 2 m/s 764 mmHg 85%
    11:00 -1°C° 0 mm 2 m/s 764 mmHg 81%
    12:00 -1°C° 0 mm 2 m/s 764 mmHg 81%
    13:00 -1°C° 0 mm 2 m/s 764 mmHg 80%
    14:00 +1°C° 0 mm 1 m/s 764 mmHg 79%
    15:00 -2°C° 0 mm 2 m/s 764 mmHg 82%
    16:00 -2°C° 0 mm 2 m/s 763 mmHg 84%
    17:00 -3°C° 0 mm 2 m/s 763 mmHg 87%
    18:00 -3°C° 0 mm 2 m/s 763 mmHg 86%
    19:00 -3°C° 0 mm 2 m/s 763 mmHg 86%
    20:00 -3°C° 0 mm 2 m/s 763 mmHg 86%
    21:00 -3°C° 0 mm 2 m/s 763 mmHg 86%
    22:00 -3°C° 0 mm 2 m/s 762 mmHg 85%
    23:00 -3°C° 0 mm 2 m/s 762 mmHg 85%

    22 Novembre, Jeudi

    Heure Température Précipitation Vent Pression Humidité
    00:00 -2°C° 0 mm 2 m/s 762 mmHg 84%
    01:00 -2°C° 0 mm 3 m/s 761 mmHg 83%
    02:00 -2°C° 0 mm 3 m/s 761 mmHg 82%
    03:00 -2°C° 0 mm 3 m/s 761 mmHg 81%
    04:00 -2°C° 0 mm 3 m/s 760 mmHg 80%
    05:00 -3°C° 0 mm 4 m/s 760 mmHg 79%
    06:00 -3°C° 0 mm 4 m/s 759 mmHg 78%
    07:00 -3°C° 0 mm 4 m/s 759 mmHg 77%
    08:00 -2°C° 0 mm 4 m/s 759 mmHg 76%
    09:00 -2°C° 0 mm 4 m/s 759 mmHg 77%
    10:00 -1°C° 0 mm 4 m/s 758 mmHg 78%
    11:00 -1°C° 0 mm 5 m/s 758 mmHg 79%
    12:00 0°C° 0 mm 4 m/s 758 mmHg 80%
    13:00 0°C° 0 mm 4 m/s 758 mmHg 81%
    14:00 0°C° 0 mm 4 m/s 758 mmHg 82%
    15:00 -1°C° 0 mm 4 m/s 758 mmHg 84%
    16:00 -1°C° 0 mm 4 m/s 758 mmHg 87%
    17:00 -1°C° 0 mm 3 m/s 758 mmHg 90%
    18:00 -1°C° 0 mm 3 m/s 759 mmHg 91%
    19:00 -1°C° 0 mm 2 m/s 759 mmHg 92%
    20:00 -2°C° 0 mm 2 m/s 759 mmHg 94%
    21:00 -2°C° 0 mm 2 m/s 759 mmHg 94%
    22:00 0°C° 0 mm 1 m/s 760 mmHg 95%
    23:00 0°C° 0 mm 1 m/s 760 mmHg 95%

    23 Novembre, Vendredi

    Heure Température Précipitation Vent Pression Humidité
    00:00 0°C° 0 mm 1 m/s 760 mmHg 95%
    01:00 0°C° 0 mm 1 m/s 760 mmHg 95%
    02:00 0°C° 0 mm 1 m/s 761 mmHg 95%
    03:00 0°C° 0 mm 1 m/s 761 mmHg 95%
    04:00 0°C° 0 mm 1 m/s 761 mmHg 95%
    05:00 0°C° 0 mm 1 m/s 761 mmHg 96%
    06:00 0°C° 0 mm 1 m/s 761 mmHg 96%
    07:00 -2°C° 0 mm 2 m/s 760 mmHg 96%
    08:00 -2°C° 0 mm 2 m/s 760 mmHg 96%
    09:00 -1°C° 0 mm 2 m/s 760 mmHg 93%
    10:00 -1°C° 0 mm 2 m/s 760 mmHg 91%
    11:00 0°C° 0 mm 3 m/s 760 mmHg 88%
    12:00 0°C° 0 mm 3 m/s 760 mmHg 88%
    13:00 0°C° 0 mm 3 m/s 759 mmHg 87%
    14:00 -1°C° 0 mm 4 m/s 759 mmHg 87%
    15:00 -1°C° 0 mm 4 m/s 759 mmHg 86%
    16:00 -1°C° 0 mm 4 m/s 758 mmHg 85%
    17:00 -1°C° 0 mm 4 m/s 758 mmHg 84%
    18:00 -1°C° 0 mm 5 m/s 757 mmHg 84%
    19:00 -1°C° 0 mm 5 m/s 757 mmHg 84%
    20:00 -1°C° 0 mm 5 m/s 757 mmHg 84%
    21:00 -1°C° 0 mm 5 m/s 756 mmHg 84%
    22:00 -1°C° 0 mm 5 m/s 756 mmHg 84%
    23:00 -1°C° 0 mm 5 m/s 756 mmHg 84%

    24 Novembre, Samedi

    Heure Température Précipitation Vent Pression Humidité
    00:00 -1°C° 0 mm 4 m/s 755 mmHg 84%
    01:00 -1°C° 0 mm 4 m/s 755 mmHg 84%
    02:00 -1°C° 0 mm 4 m/s 755 mmHg 84%
    03:00 -1°C° 0 mm 4 m/s 755 mmHg 85%
    04:00 -1°C° 0 mm 4 m/s 754 mmHg 85%
    05:00 -1°C° 0 mm 4 m/s 754 mmHg 86%
    06:00 0°C° 0 mm 3 m/s 754 mmHg 86%
    07:00 0°C° 0 mm 3 m/s 754 mmHg 86%
    08:00 0°C° 0 mm 3 m/s 753 mmHg 87%
    09:00 0°C° 0 mm 3 m/s 753 mmHg 86%
    10:00 0°C° 0 mm 3 m/s 753 mmHg 85%
    11:00 0°C° 0 mm 3 m/s 753 mmHg 85%
    12:00 0°C° 0 mm 3 m/s 753 mmHg 85%
    13:00 0°C° 0 mm 3 m/s 753 mmHg 86%
    14:00 0°C° 0 mm 3 m/s 753 mmHg 86%
    15:00 +1°C° 0.1 mm 2 m/s 753 mmHg 88%
    16:00 +1°C° 0.1 mm 2 m/s 753 mmHg 89%
    17:00 +1°C° 0.1 mm 2 m/s 753 mmHg 90%
    18:00 +1°C° 0.1 mm 2 m/s 753 mmHg 91%
    19:00 +1°C° 0.1 mm 2 m/s 753 mmHg 92%
    20:00 +1°C° 0.1 mm 2 m/s 753 mmHg 93%
    21:00 +1°C° 0.1 mm 1 m/s 753 mmHg 93%
    22:00 +1°C° 0.1 mm 1 m/s 753 mmHg 93%
    23:00 +1°C° 0.1 mm 1 m/s 753 mmHg 92%
    Voir plus